Location: ????????
(55.0808°N, 38.5463°E)
Time: 02:44:47
(UTC+00:00)

Nimbus 3 Rocket - Pass Details

Date: 20 September 2024
Orbit: 1072 x 1131 km, 99.9° (Epoch: 03 October)

Event Time Altitude Azimuth Distance (km) Brightness Sun altitude
Rises 22:04:00 0° 17° (NNE) 3,920 9.2 -33.5°
Reaches altitude 10° 22:06:34 10° 17° (NNE) 2,952 8.3 -33.4°
Enters shadow 22:12:39 72° 342° (NNW) 1,136 5.3 -33.2°
